Etusivu
METAR-TAF:

METAR-TAF

Lentoasemat :

Midland, Texas, Yhdysvallat

Leveyspiiri: 32-02-11N, Pituuspiiri: 102-06-03W, korkeus merenpinnasta: 854 m

Tämänhetkinen sää

Tämä raportti tehtiin 8 minuuttia sitten, kello 10.35 UTC
Tuuli 10 kn pohjoisesta
Lämpötila 7°C
Kosteus 70%
Ilmanpaine 1024 hPa
Näkyvyys: 16.1 km
selkeää

METAR: KMDD 061035Z AUTO 35010KT 10SM CLR 07/02 A3025 RMK AO2 T00720017

Aika: 04:43 (10:43 UTC)


TAF: puuttuu

Säähavainnot ja -ennusteet yli 4000 lentoasemalta (METAR- ja TAF-raportit).

Käytössä olevat sääasemat on merkitty karttaan keltaisilla ja punaisilla pisteillä.

Aseta hiiri pisteen päälle nähdäksesi sääaseman nimen.

Klikkaa sitten nähdäksesi säähavainnot ja -ennusteet.

Kartan vaihtaminen: klikkaa mustalla rastilla varustettuja vihreitä pisteitä, niin voit zoomata sisään; viivalla varustettua vihreää pistettä, niin voit zoomata ulos tai vihreitä nuolia, niin pääset viereisille kartoille.


METAR-TAF: